Location: Lugano
(46.0000°N, 8.9670°E)
Time: 16:49:07
(UTC+02:00)

Envisat - Pass Details

Date: 20 March 2026
Orbit: 761 x 762 km, 98.4° (Epoch: 19 April)

Event Time Altitude Azimuth Distance (km) Brightness Sun altitude
Rises 03:52:32 0° 7° (N) 3,235 6.7 -26.6°
Reaches altitude 10° 03:54:58 10° 360° (N) 2,305 5.8 -26.2°
Enters shadow 03:58:34 35° 322° (NW) 1,217 3.9 -25.6°
